FW1757 Weather Reports


time (UTC)temp
C
wind
direction
speed
KPH
gust
KPH
rain 1hr
cm
rain 24hr
cm
rain mn
cm
humidity
%
barometer
mb
20260509200009 23 9 0.0 0.0 0.00 0.00 0.00 45 1018.2
20260509195511 23 69 0.0 0.0 0.00 0.00 0.00 45 1018.2
20260509195010 22 11 0.0 0.0 0.00 0.00 0.00 46 1018.3
20260509194505 22 25 0.0 0.0 0.00 0.00 0.00 45 1018.4
20260509194004 22 19 0.0 0.0 0.00 0.00 0.00 49 1018.5
20260509193504 22 57 0.0 0.0 0.00 0.00 0.00 50 1018.5
20260509193003 21 15 0.0 0.0 0.00 0.00 0.00 50 1018.6
20260509192603 21 360 0.0 0.0 0.00 0.00 0.00 51 1018.7
20260509192059 21 53 0.0 0.0 0.00 0.00 0.00 50 1018.7
20260509191603 21 355 0.0 0.0 0.00 0.00 0.00 52 1018.8
20260509191057 21 355 0.0 0.0 0.00 0.00 0.00 53 1018.9
20260509190554 20 78 0.0 0.0 0.00 0.00 0.00 55 1018.9
20260509190107 20 39 0.0 0.0 0.00 0.00 0.00 55 1019.0
20260509185552 20 38 0.0 0.0 0.00 0.00 0.00 56 1019.1
20260509185051 20 37 0.0 0.0 0.00 0.00 0.00 58 1019.1
20260509184551 19 13 0.0 0.0 0.00 0.00 0.00 54 1019.2
20260509184049 19 329 0.0 0.0 0.00 0.00 0.00 55 1019.3
20260509183548 19 351 0.0 0.0 0.00 0.00 0.00 56 1019.4
20260509183047 18 351 0.0 0.0 0.00 0.00 0.00 58 1019.4
20260509182546 18 351 0.0 0.0 0.00 0.00 0.00 59 1019.5
20260509182045 18 331 0.0 0.0 0.00 0.00 0.00 58 1019.5
20260509181546 18 331 0.0 0.0 0.00 0.00 0.00 61 1019.5
20260509181043 18 330 0.0 0.0 0.00 0.00 0.00 61 1019.6
20260509180542 18 321 0.0 0.0 0.00 0.00 0.00 57 1019.6
20260509180043 17 267 0.0 0.0 0.00 0.00 0.00 60 1019.6
20260509175540 17 228 0.0 0.0 0.00 0.00 0.00 60 1019.5
20260509175039 17 215 0.0 0.0 0.00 0.00 0.00 59 1019.5
20260509174537 17 271 0.0 0.0 0.00 0.00 0.00 63 1019.6
20260509174036 16 271 0.0 0.0 0.00 0.00 0.00 61 1019.5
20260509173535 16 271 0.0 0.0 0.00 0.00 0.00 63 1019.5
20260509173033 16 269 0.0 0.0 0.00 0.00 0.00 64 1019.6
20260509172532 15 265 0.0 0.0 0.00 0.00 0.00 66 1019.6
20260509172031 15 265 0.0 0.0 0.00 0.00 0.00 66 1019.6
20260509171537 15 265 0.0 0.0 0.00 0.00 0.00 66 1019.7
20260509171028 15 265 0.0 0.0 0.00 0.00 0.00 67 1019.8
20260509170531 14 265 0.0 0.0 0.00 0.00 0.00 67 1019.9
20260509170030 14 259 0.0 0.0 0.00 0.00 0.00 68 1019.9
20260509165525 14 259 0.0 0.0 0.00 0.00 0.00 68 1020.0
20260509165026 13 259 0.0 0.0 0.00 0.00 0.00 68 1019.8
20260509164524 13 259 0.0 0.0 0.00 0.00 0.00 68 1019.9
20260509164026 13 259 0.0 0.0 0.00 0.00 0.00 68 1019.9
20260509163529 13 259 0.0 0.0 0.00 0.00 0.00 68 1020.0
20260509163026 13 257 0.0 0.0 0.00 0.00 0.00 67 1020.1
20260509162524 12 257 0.0 0.0 0.00 0.00 0.00 65 1020.1
20260509162023 12 257 0.0 0.0 0.00 0.00 0.00 63 1020.1
20260509161524 12 257 0.0 0.0 0.00 0.00 0.00 63 1020.3
20260509161024 12 257 0.0 0.0 0.00 0.00 0.00 64 1020.3
20260509160522 12 257 0.0 0.0 0.00 0.00 0.00 63 1020.2
20260509160024 12 257 0.0 0.0 0.00 0.00 0.00 63 1020.4
20260509155522 12 255 0.0 0.0 0.00 0.00 0.00 60 1020.4
20260509155022 12 274 0.0 0.0 0.00 0.00 0.00 58 1020.4
20260509154522 11 263 0.0 0.0 0.00 0.00 0.00 57 1020.6
20260509154024 11 252 0.0 0.0 0.00 0.00 0.00 55 1020.4
20260509153522 11 230 0.0 0.0 0.00 0.00 0.00 52 1020.4
20260509153020 11 275 0.0 0.0 0.00 0.00 0.00 49 1020.3
20260509152520 11 275 0.0 0.0 0.00 0.00 0.00 48 1020.2
20260509152020 11 275 0.0 0.0 0.00 0.00 0.00 45 1020.3
20260509151520 11 275 0.0 0.0 0.00 0.00 0.00 42 1020.2
20260509151019 11 275 0.0 0.0 0.00 0.00 0.00 42 1020.2
20260509150519 11 275 0.0 0.0 0.00 0.00 0.00 40 1020.2
20260509150031 10 275 0.0 0.0 0.00 0.00 0.00 39 1020.2
20260509145520 10 275 0.0 0.0 0.00 0.00 0.00 35 1020.2
20260509145019 10 275 0.0 0.0 0.00 0.00 0.00 31 1020.3
20260509144529 10 275 0.0 0.0 0.00 0.00 0.00 29 1020.4
20260509144021 10 275 0.0 0.0 0.00 0.00 0.00 27 1020.3
20260509143518 10 274 0.0 0.0 0.00 0.00 0.00 23 1020.3
20260509143019 10 273 0.0 0.0 0.00 0.00 0.00 17 1020.3
20260509142517 10 273 0.0 0.0 0.00 0.00 0.00 22 1020.3
20260509142018 10 273 0.0 0.0 0.00 0.00 0.00 21 1020.3
20260509141521 10 273 0.0 0.0 0.00 0.00 0.00 20 1020.1
20260509141019 10 273 0.0 0.0 0.00 0.00 0.00 20 1020.0
20260509140516 10 273 0.0 0.0 0.00 0.00 0.00 20 1020.0
20260509140015 10 272 0.0 0.0 0.00 0.00 0.00 21 1020.1
20260509135516 9 273 0.0 0.0 0.00 0.00 0.00 22 1019.9
20260509135016 9 272 0.0 0.0 0.00 0.00 0.00 22 1020.0
20260509134515 9 360 0.0 0.0 0.00 0.00 0.00 21 1020.0
20260509134015 9 360 0.0 0.0 0.00 0.00 0.00 21 1020.0
20260509133515 9 360 0.0 0.0 0.00 0.00 0.00 22 1020.2
20260509133013 9 360 0.0 0.0 0.00 0.00 0.00 25 1020.2
20260509132516 9 271 0.0 0.0 0.00 0.00 0.00 27 1020.1
20260509132013 9 271 0.0 0.0 0.00 0.00 0.00 28 1020.0
20260509131510 9 270 0.0 0.0 0.00 0.00 0.00 30 1019.9
20260509131010 9 271 0.0 0.0 0.00 0.00 0.00 31 1019.9
20260509130509 9 360 0.0 0.0 0.00 0.00 0.00 33 1019.8
20260509130013 9 360 0.0 0.0 0.00 0.00 0.00 36 1019.8
20260509125508 9 360 0.0 0.0 0.00 0.00 0.00 37 1019.8
20260509125011 9 360 0.0 0.0 0.00 0.00 0.00 40 1019.7
20260509124509 9 360 0.0 0.0 0.00 0.00 0.00 43 1019.6
20260509124005 9 360 0.0 0.0 0.00 0.00 0.00 44 1019.7
20260509123506 9 273 0.0 0.0 0.00 0.00 0.00 47 1019.6
20260509123004 9 273 0.0 0.0 0.00 0.00 0.00 50 1019.5
20260509122502 10 273 0.0 0.0 0.00 0.00 0.00 55 1019.6
20260509122001 10 273 0.0 0.0 0.00 0.00 0.00 56 1019.6
20260509121600 10 273 0.0 0.0 0.00 0.00 0.00 57 1019.5
20260509121059 10 273 0.0 0.0 0.00 0.00 0.00 58 1019.5
20260509120600 10 273 0.0 0.0 0.00 0.00 0.00 61 1019.5
20260509120057 10 273 0.0 0.0 0.00 0.00 0.00 62 1019.4
20260509115555 11 273 0.0 0.0 0.00 0.00 0.00 64 1019.4
20260509115053 11 273 0.0 0.0 0.00 0.00 0.00 65 1019.3
20260509114555 11 273 0.0 0.0 0.00 0.00 0.00 66 1019.4
20260509114053 11 273 0.0 0.0 0.00 0.00 0.00 67 1019.3
20260509113553 12 273 0.0 0.0 0.00 0.00 0.00 67 1019.2
20260509113057 12 273 0.0 0.0 0.00 0.00 0.00 68 1019.3
20260509112552 12 273 0.0 0.0 0.00 0.00 0.00 68 1019.2
20260509112052 12 273 0.0 0.0 0.00 0.00 0.00 68 1019.2
20260509111552 12 273 0.0 0.0 0.00 0.00 0.00 68 1019.0
20260509111052 12 232 0.0 0.0 0.00 0.00 0.00 68 1019.0
20260509110555 12 265 0.0 0.0 0.00 0.00 0.00 68 1018.9
20260509110051 12 269 0.0 0.0 0.00 0.00 0.00 68 1019.0
20260509105550 12 276 0.0 0.0 0.00 0.00 0.00 68 1019.1
20260509105050 12 294 0.0 0.0 0.00 0.00 0.00 68 1019.1
20260509104550 12 277 0.0 0.0 0.00 0.00 0.00 68 1019.0
20260509104048 12 270 0.0 0.0 0.00 0.00 0.00 68 1019.0
20260509103548 12 259 0.0 0.0 0.00 0.00 0.00 68 1019.1
20260509103053 12 247 0.0 0.0 0.00 0.00 0.00 68 1019.1
20260509102548 12 274 0.0 0.0 0.00 0.00 0.00 67 1019.2
20260509102048 12 275 0.0 0.0 0.00 0.00 0.00 67 1019.2
20260509101552 12 255 0.0 0.0 0.00 0.00 0.00 67 1019.2
20260509101046 12 231 0.0 0.0 0.00 0.00 0.00 67 1019.2
20260509100546 12 256 0.0 0.0 0.00 0.00 0.00 67 1019.2
20260509100046 12 259 0.0 0.0 0.00 0.00 0.00 67 1019.3
20260509095546 12 283 0.0 0.0 0.00 0.00 0.00 67 1019.4
20260509095046 11 257 0.0 0.0 0.00 0.00 0.00 67 1019.4
20260509094546 11 256 0.0 0.0 0.00 0.00 0.00 66 1019.3
20260509094044 11 252 0.0 0.0 0.00 0.00 0.00 66 1019.3
20260509093544 11 237 0.0 0.0 0.00 0.00 0.00 66 1019.4
20260509093144 11 244 0.0 0.0 0.00 0.00 0.00 66 1019.5
20260509092543 11 215 0.0 0.0 0.00 0.00 0.00 65 1019.5
20260509092046 11 254 0.0 0.0 0.00 0.00 0.00 65 1019.4
20260509091543 11 273 0.0 0.0 0.00 0.00 0.00 65 1019.6
20260509091045 11 234 0.0 0.0 0.00 0.00 0.00 65 1019.6
20260509090542 11 261 0.0 0.0 0.00 0.00 0.00 65 1019.6
20260509090041 11 232 0.0 0.0 0.00 0.00 0.00 65 1019.6
20260509085540 11 233 0.0 0.0 0.00 0.00 0.00 66 1019.6
20260509085039 11 233 0.0 0.0 0.00 0.00 0.00 66 1019.7
20260509084542 12 233 0.0 0.0 0.00 0.00 0.00 66 1019.7
20260509084037 12 271 0.0 0.0 0.00 0.00 0.00 67 1019.8
20260509083535 12 269 0.0 0.0 0.00 0.00 0.00 67 1019.8
20260509083043 12 269 0.0 0.0 0.00 0.00 0.00 67 1019.9
20260509082535 12 269 0.0 0.0 0.00 0.00 0.00 68 1019.8
20260509082034 12 269 0.0 0.0 0.00 0.00 0.00 68 1019.9
20260509081534 12 269 0.0 0.0 0.00 0.00 0.00 68 1019.9
20260509081034 12 269 0.0 0.0 0.00 0.00 0.00 68 1019.9
20260509080536 12 269 0.0 0.0 0.00 0.00 0.00 68 1020.0
20260509080037 12 269 0.0 0.0 0.00 0.00 0.00 68 1020.0
20260509075532 12 256 0.0 0.0 0.00 0.00 0.00 68 1019.9
20260509075034 13 273 0.0 0.0 0.00 0.00 0.00 68 1019.9
20260509074532 13 288 0.0 0.0 0.00 0.00 0.00 68 1019.9
20260509074030 13 287 0.0 0.0 0.00 0.00 0.00 68 1020.0
20260509073534 13 283 0.0 0.0 0.00 0.00 0.00 68 1020.0
20260509073029 13 282 0.0 0.0 0.00 0.00 0.00 67 1020.0
20260509072529 13 272 0.0 0.0 0.00 0.00 0.00 66 1019.9
20260509072030 13 272 0.0 0.0 0.00 0.00 0.00 66 1019.9
20260509071526 13 272 0.0 0.0 0.00 0.00 0.00 66 1019.9
20260509071025 13 272 0.0 0.0 0.00 0.00 0.00 66 1019.8
20260509070528 14 272 0.0 0.0 0.00 0.00 0.00 65 1019.9
20260509070023 14 272 0.0 0.0 0.00 0.00 0.00 65 1019.7
20260509065522 14 272 0.0 0.0 0.00 0.00 0.00 64 1019.6
20260509065022 14 292 0.0 0.0 0.00 0.00 0.00 64 1019.6
20260509064522 14 236 0.0 0.0 0.00 0.00 0.00 64 1019.7
20260509064022 14 223 0.0 0.0 0.00 0.00 0.00 64 1019.6
20260509063524 14 211 0.0 0.0 0.00 0.00 0.00 64 1019.7
20260509063021 14 250 0.0 0.0 0.00 0.00 0.00 64 1019.5
20260509062521 14 237 0.0 0.0 0.00 0.00 0.00 64 1019.5
20260509062022 14 219 0.0 0.0 0.00 0.00 0.00 64 1019.5
20260509061525 14 254 0.0 0.0 0.00 0.00 0.00 64 1019.5
20260509061021 14 279 0.0 0.0 0.00 0.00 0.00 64 1019.3
20260509060521 14 232 0.0 0.0 0.00 0.00 0.00 64 1019.3
20260509060021 14 232 0.0 0.0 0.00 0.00 0.00 64 1019.3
20260509055521 14 256 0.0 0.0 0.00 0.00 0.00 63 1019.4
20260509055020 14 302 0.0 0.0 0.00 0.00 0.00 63 1019.4
20260509054520 14 288 0.0 0.0 0.00 0.00 0.00 63 1019.5
20260509054020 14 281 0.0 0.0 0.00 0.00 0.00 62 1019.5
20260509053521 14 277 0.0 0.0 0.00 0.00 0.00 62 1019.6
20260509053020 14 249 0.0 0.0 0.00 0.00 0.00 62 1019.6
20260509052519 15 263 0.0 0.0 0.00 0.00 0.00 61 1019.7
20260509052018 15 318 0.0 0.0 0.00 0.00 0.00 61 1019.6
20260509051520 15 252 0.0 0.0 0.00 0.00 0.00 61 1019.6
20260509051018 15 257 0.0 0.0 0.00 0.00 0.00 61 1019.7
20260509050522 15 232 0.0 0.0 0.00 0.00 0.00 61 1019.6
20260509050018 15 275 0.0 0.0 0.00 0.00 0.00 60 1019.7
20260509045522 15 255 0.0 0.0 0.00 0.00 0.00 60 1019.6
20260509045016 15 296 0.0 0.0 0.00 0.00 0.00 60 1019.5
20260509044517 15 274 0.0 0.0 0.00 0.00 0.00 59 1019.4
20260509044016 15 249 0.0 0.0 0.00 0.00 0.00 59 1019.5
20260509043519 15 233 0.0 0.0 0.00 0.00 0.00 59 1019.5
20260509043015 15 276 0.0 0.0 0.00 0.00 0.00 58 1019.4
20260509042515 15 247 0.0 0.0 0.00 0.00 0.00 58 1019.5
20260509042015 15 250 0.0 0.0 0.00 0.00 0.00 58 1019.5
20260509041514 15 255 0.0 0.0 0.00 0.00 0.00 58 1019.5
20260509041014 15 261 0.0 0.0 0.00 0.00 0.00 58 1019.4
20260509040513 16 253 0.0 0.0 0.00 0.00 0.00 57 1019.4
20260509040012 16 252 0.0 0.0 0.00 0.00 0.00 57 1019.3
20260509035515 16 242 0.0 0.0 0.00 0.00 0.00 57 1019.1
20260509035015 16 279 0.0 0.0 0.00 0.00 0.00 57 1019.0
20260509034533 16 225 0.0 0.0 0.00 0.00 0.00 56 1019.0
20260509034010 16 246 0.0 0.0 0.00 0.00 0.00 56 1018.9
20260509033510 16 285 0.0 0.0 0.00 0.00 0.00 56 1018.9
20260509033011 16 273 0.0 0.0 0.00 0.00 0.00 56 1019.0
20260509032510 16 288 0.0 0.0 0.00 0.00 0.00 55 1018.9
20260509032012 16 211 0.0 0.0 0.00 0.00 0.00 55 1018.8
20260509031510 16 281 0.0 0.0 0.00 0.00 0.00 55 1018.7
20260509031009 16 243 0.0 0.0 0.00 0.00 0.00 54 1018.7
20260509030510 16 269 0.0 0.0 0.00 0.00 0.00 54 1018.7
20260509030008 16 285 0.0 0.0 0.00 0.00 0.00 53 1018.6
20260509025509 17 311 0.0 0.0 0.00 0.00 0.00 53 1018.6
20260509025007 17 280 0.0 0.0 0.00 0.00 0.00 53 1018.5
20260509024506 17 257 0.0 0.0 0.00 0.00 0.00 52 1018.4
20260509024006 17 259 0.0 0.0 0.00 0.00 0.00 52 1018.4
20260509023506 17 281 0.0 0.0 0.00 0.00 0.00 52 1018.3
20260509023005 17 315 0.0 0.0 0.00 0.00 0.00 52 1018.2
20260509022505 17 284 0.0 0.0 0.00 0.00 0.00 51 1018.2
20260509022005 17 288 0.0 0.0 0.00 0.00 0.00 51 1018.2
20260509021505 17 276 0.0 0.0 0.00 0.00 0.00 50 1018.1
20260509021008 17 269 0.0 0.0 0.00 0.00 0.00 50 1018.1
20260509020509 18 273 0.0 0.0 0.00 0.00 0.00 49 1018.1
20260509020004 18 251 0.0 0.0 0.00 0.00 0.00 49 1018.0
20260509015504 18 284 0.0 0.0 0.00 0.00 0.00 48 1017.9
20260509015004 18 298 0.0 0.0 0.00 0.00 0.00 48 1017.9
20260509014503 18 302 0.0 0.0 0.00 0.00 0.00 48 1017.8
20260509014003 18 284 0.0 0.0 0.00 0.00 0.00 47 1017.8
20260509013502 18 271 0.0 0.0 0.00 0.00 0.00 47 1017.8
20260509013003 18 260 0.0 0.0 0.00 0.00 0.00 46 1017.9
20260509012504 19 265 0.0 0.0 0.00 0.00 0.00 46 1017.7
20260509012002 19 250 0.0 0.0 0.00 0.00 0.00 46 1017.8
20260509011502 19 285 0.0 0.0 0.00 0.00 0.00 46 1017.8
20260509011002 19 288 0.0 0.0 0.00 0.00 0.00 45 1017.9
20260509010502 19 275 0.0 0.0 0.00 0.00 0.00 46 1018.0
20260509010002 19 263 0.0 0.0 0.00 0.00 0.00 47 1018.0
20260509005500 19 302 0.0 0.0 0.00 0.00 0.00 45 1018.0
20260509005000 20 263 0.0 0.0 0.00 0.00 0.00 44 1018.0
20260509004500 20 252 0.0 0.0 0.00 0.00 0.00 44 1018.1
20260509004100 20 265 0.0 0.0 0.00 0.00 0.00 44 1017.8
20260509004003 20 276 0.0 0.0 0.00 0.00 0.00 45 1017.9
20260509003604 20 287 0.0 0.0 0.00 0.00 0.00 44 1018.0
20260509003100 20 290 0.0 0.0 0.00 0.00 0.00 44 1017.8
20260509002501 20 246 0.0 0.0 0.00 0.00 0.00 42 1017.8
20260509002100 20 279 0.0 0.0 0.00 0.00 0.00 42 1017.7
20260509001559 20 252 0.0 0.0 0.00 0.00 0.00 41 1017.6
20260509001059 20 296 0.0 0.0 0.00 0.00 0.00 43 1017.6
20260509000558 20 300 0.0 0.0 0.00 0.00 0.00 42 1017.6
20260509000058 20 288 0.0 0.0 0.00 0.00 0.00 41 1017.7
20260508235558 20 298 0.0 0.0 0.00 0.00 0.00 41 1017.6
20260508235059 20 302 0.0 0.0 0.00 0.00 0.00 41 1017.6
20260508234605 19 284 0.0 0.0 0.00 0.00 0.00 41 1017.5
20260508234100 19 276 0.0 0.0 0.00 0.00 0.00 39 1017.6
20260508233559 19 300 0.0 0.0 0.00 0.00 0.00 39 1017.5
20260508233056 19 275 0.0 0.0 0.00 0.00 0.00 38 1017.6
20260508232558 19 309 0.0 0.0 0.00 0.00 0.00 38 1017.7
20260508232058 19 294 0.0 0.0 0.00 0.00 0.00 36 1017.5
20260508231558 20 314 0.0 0.0 0.00 0.00 0.00 36 1017.5
20260508231056 20 311 0.0 0.0 0.00 0.00 0.00 37 1017.4
20260508230559 19 306 0.0 0.0 0.00 0.00 0.00 36 1017.5
20260508230057 19 282 0.0 0.0 0.00 0.00 0.00 37 1017.4
20260508225555 19 311 0.0 0.0 0.00 0.00 0.00 37 1017.5
20260508225056 20 290 0.0 0.0 0.00 0.00 0.00 37 1017.5
20260508224557 19 287 0.0 0.0 0.00 0.00 0.00 39 1017.5
20260508224054 19 309 0.0 0.0 0.00 0.00 0.00 39 1017.5
20260508223553 19 259 0.0 0.0 0.00 0.00 0.00 39 1017.6
20260508223054 20 268 0.0 0.0 0.00 0.00 0.00 38 1017.6
20260508222553 20 278 0.0 0.0 0.00 0.00 0.00 38 1017.7
20260508222051 19 261 0.0 0.0 0.00 0.00 0.00 41 1017.6
20260508221552 19 288 0.0 0.0 0.00 0.00 0.00 40 1017.6
20260508221051 19 277 0.0 0.0 0.00 0.00 0.00 41 1017.8
20260508220550 19 289 0.0 0.0 0.00 0.00 0.00 41 1017.6
20260508220049 18 309 0.0 0.0 0.00 0.00 0.00 42 1017.8
20260508215547 18 301 0.0 0.0 0.00 0.00 0.00 41 1017.7
20260508215047 18 311 0.0 0.0 0.00 0.00 0.00 43 1017.8
20260508214559 18 294 0.0 0.0 0.00 0.00 0.00 44 1017.7
20260508214044 18 300 0.0 0.0 0.00 0.00 0.00 43 1017.9
20260508213544 18 287 0.0 0.0 0.00 0.00 0.00 43 1018.0
20260508213044 18 300 0.0 0.0 0.00 0.00 0.00 42 1018.1
20260508212544 18 262 0.0 0.0 0.00 0.00 0.00 43 1018.2
20260508212044 18 285 0.0 0.0 0.00 0.00 0.00 42 1018.2
20260508211543 18 315 0.0 0.0 0.00 0.00 0.00 42 1018.2
20260508211043 18 317 0.0 0.0 0.00 0.00 0.00 42 1018.2
20260508210543 18 294 0.0 0.0 0.00 0.00 0.00 42 1017.9
20260508210046 18 277 0.0 0.0 0.00 0.00 0.00 43 1018.0
20260508205541 18 301 0.0 0.0 0.00 0.00 0.00 43 1017.9
20260508205043 18 308 0.0 0.0 0.00 0.00 0.00 43 1018.0
20260508204542 18 344 0.0 0.0 0.00 0.00 0.00 46 1018.1
20260508204038 17 313 0.0 0.0 0.00 0.00 0.00 44 1017.8
20260508203538 17 279 0.0 0.0 0.00 0.00 0.00 43 1017.8
20260508203040 17 271 0.0 0.0 0.00 0.00 0.00 45 1017.8
20260508202537 17 199 0.0 0.0 0.00 0.00 0.00 43 1017.9
20260508202036 17 288 0.0 0.0 0.00 0.00 0.00 45 1017.8
20260508201536 17 275 0.0 0.0 0.00 0.00 0.00 44 1017.8
20260508201038 17 263 0.0 0.0 0.00 0.00 0.00 47 1017.9
20260508200535 17 289 0.0 0.0 0.00 0.00 0.00 46 1017.7